Courmayeur, Italy 16 day weather forecast

Slopes altitude range 1225 m - 2755m

Number of lifts: 18 Pistes: 100km

In some cases the lift and piste totals shown are for the ski domain (e.g. Three Valleys) rather than individual resort (e.g. Courchevel)

Overview

The 16 day weather forecast is fully updated 4 times every day.

    • Sat 20 OCT 2018
    • Sat 20
    • 1C 11C
    • Sun 21 OCT 2018
    • Sun 21
    • 2C 11C
    • Mon 22 OCT 2018
    • Mon 22
    • -1C 8C
    • Tue 23 OCT 2018
    • Tue 23
    • -1C 7C
    • Wed 24 OCT 2018
    • Wed 24
    • 0C 9C
    • Thu 25 OCT 2018
    • Thu 25
    • 2C 12C
    • Fri 26 OCT 2018
    • Fri 26
    • 2C 10C
    • Sat 27 OCT 2018
    • Sat 27
    • -5C 0C
    • Sun 28 OCT 2018
    • Sun 28
    • -12C -5C
    • Mon 29 OCT 2018
    • Mon 29
    • -7C -2C
    • Tue 30 OCT 2018
    • Tue 30
    • -4C 5C
    • Wed 31 OCT 2018
    • Wed 31
    • 3C 7C
    • Thu 01 NOV 2018
    • Thu 01
    • -1C 2C
    • Fri 02 NOV 2018
    • Fri 02
    • -5C -1C
    • Sat 03 NOV 2018
    • Sat 03
    • -7C 3C
    • Sun 04 NOV 2018
    • Sun 04
    • -3C 6C

Date:

Time Type 0°C level Temp Chill Snow Cloud Speed Gust Dir Press
12:00 3527m 11°C 11_6 0cm 31% 6mph 6mph 1024mB
15:00 3643m 11°C 11_5 0cm 0% 5mph 6mph 1024mB
18:00 3813m 11°C 11_3 0cm 0% 3mph 3mph 1025mB
21:00 3822m 3°C 3_3 0cm 0% 3mph 4mph 1026mB
0:00 3806m 2°C 2_3 0cm 0% 3mph 3mph 1025mB
3:00 3761m 2°C 2_2 0cm 29% 2mph 2mph 1024mB
6:00 3760m 1°C 1_1 0cm 45% 1mph 2mph 1024mB
9:00 3800m 2°C 2_5 0cm 91% 5mph 6mph 1022mB
12:00 3852m 11°C 11_7 0cm 56% 7mph 8mph 1020mB
15:00 3831m 11°C 11_7 0cm 0% 7mph 8mph 1019mB
18:00 3817m 11°C 11_3 0cm 0% 3mph 4mph 1021mB
21:00 3814m 2°C 2_5 0cm 1% 5mph 6mph 1022mB
0:00 3671m 2°C 2_5 0cm 0% 5mph 6mph 1022mB
3:00 3527m 1°C 1_3 0cm 0% 3mph 4mph 1022mB
6:00 2231m -1°C -1_1 0cm 0% 1mph 2mph 1023mB
9:00 3360m -1°C -1_3 0cm 0% 3mph 3mph 1023mB
12:00 3116m 8°C 8_7 0cm 0% 7mph 6mph 1022mB
15:00 2714m 7°C 7_6 0cm 0% 6mph 7mph 1022mB
18:00 2124m 7°C 7_3 0cm 0% 3mph 4mph 1025mB
21:00 2153m -1°C -1_3 0cm 0% 3mph 4mph 1027mB
0:00 2252m -1°C -1_3 0cm 26% 3mph 4mph 1027mB
3:00 2205m -1°C -1_2 0cm 2% 2mph 3mph 1027mB
6:00 2103m -1°C -1_2 0cm 1% 2mph 3mph 1028mB
9:00 3371m -1°C -1_6 0cm 16% 6mph 7mph 1027mB
12:00 3323m 7°C 7_8 0cm 34% 8mph 9mph 1025mB
15:00 3039m 7°C 7_7 0cm 80% 7mph 8mph 1024mB
18:00 2155m 7°C 7_3 0cm 85% 3mph 5mph 1027mB
21:00 2198m -1°C -1_4 0cm 82% 4mph 5mph 1027mB
0:00 2263m -1°C -1_4 0cm 71% 4mph 5mph 1027mB
3:00 2332m 0°C 0_5 0cm 0% 5mph 6mph 1026mB
6:00 2337m 0°C 0_5 0cm 1% 5mph 6mph 1026mB
9:00 3372m 0°C 0_9 0cm 4% 9mph 12mph 1025mB
12:00 3801m 9°C 9_9 0cm 3% 9mph 11mph 1023mB
15:00 3950m 9°C 9_8 0cm 0% 8mph 11mph 1022mB
18:00 4002m 9°C 9_5 0cm 20% 5mph 6mph 1023mB
21:00 4229m 2°C 2_4 0cm 86% 4mph 5mph 1024mB
0:00 4246m 2°C 2_4 0cm 91% 4mph 5mph 1023mB
3:00 3773m 1°C 1_3 0cm 87% 3mph 3mph 1022mB
6:00 4183m 1°C 1_3 0cm 88% 3mph 4mph 1022mB
9:00 4134m 2°C 2_2 0cm 87% 2mph 2mph 1022mB
12:00 4062m 12°C 12_5 0cm 85% 5mph 5mph 1020mB
15:00 3988m 12°C 12_4 0cm 85% 4mph 4mph 1018mB
18:00 4006m 12°C 12_3 0cm 74% 3mph 4mph 1019mB
21:00 4074m 3°C 3_4 0cm 63% 4mph 5mph 1019mB
0:00 3993m 3°C 3_4 0cm 69% 4mph 6mph 1018mB
3:00 3851m 3°C 3_4 0cm 95% 4mph 6mph 1017mB
6:00 3693m 2°C 2_5 0cm 64% 5mph 6mph 1016mB
9:00 3526m 2°C 2_4 0cm 28% 4mph 6mph 1015mB
12:00 3268m 10°C 10_6 0cm 29% 6mph 7mph 1013mB
15:00 3130m 10°C 10_6 0cm 4% 6mph 7mph 1011mB
18:00 2970m 10°C 10_5 0cm 48% 5mph 7mph 1011mB
21:00 2824m 2°C 2_7 0cm 62% 7mph 8mph 1011mB
0:00 2667m 1°C 1_7 0cm 78% 7mph 9mph 1010mB
3:00 2554m 2°C 2_8 1cm 97% 8mph 12mph 1009mB
6:00 2109m -1°C -1_7 4cm 98% 7mph 10mph 1009mB
9:00 1587m -4°C -4_8 4cm 100% 8mph 10mph 1010mB
12:00 1515m 0°C 0_6 4cm 99% 6mph 7mph 1009mB
15:00 1523m -4°C -4_7 1cm 98% 7mph 9mph 1008mB
18:00 1267m -4°C -4_7 1cm 97% 7mph 10mph 1009mB
21:00 1089m -7°C -7_6 1cm 94% 6mph 8mph 1010mB
0:00 940m -8°C -8_4 1cm 94% 4mph 6mph 1010mB
3:00 761m -9°C -9_4 1cm 93% 4mph 6mph 1010mB
6:00 357m -12°C -12_3 1cm 89% 3mph 4mph 1011mB
9:00 1159m -12°C -12_4 0cm 92% 4mph 5mph 1010mB
12:00 1283m -5°C -5_4 1cm 95% 4mph 4mph 1010mB
15:00 1214m -6°C -6_5 2cm 98% 5mph 6mph 1011mB
18:00 995m -6°C -6_4 2cm 99% 4mph 7mph 1012mB
21:00 916m -8°C -8_4 3cm 100% 4mph 6mph 1012mB
0:00 1093m -8°C -8_3 2cm 100% 3mph 4mph 1013mB
3:00 896m -8°C -8_5 0cm 98% 5mph 5mph 1013mB
6:00 1061m -8°C -8_4 1cm 98% 4mph 5mph 1014mB
9:00 1499m -7°C -7_4 3cm 100% 4mph 6mph 1015mB
12:00 1869m -2°C -2_3 2cm 100% 3mph 4mph 1017mB
15:00 1874m -1°C -1_1 0cm 98% 1mph 3mph 1018mB
18:00 987m -1°C -1_6 0cm 81% 6mph 7mph 1022mB
21:00 912m -8°C -8_8 0cm 0% 8mph 9mph 1025mB
0:00 934m -8°C -8_8 0cm 15% 8mph 8mph 1026mB
3:00 1226m -8°C -8_7 0cm 97% 7mph 8mph 1026mB
6:00 1251m -8°C -8_7 0cm 94% 7mph 7mph 1026mB
Afternoon 0.0885417mm 0 2908m 5°C 5_8 0cm 82% 8mph 13mph 1023mB
Morning 0.00520833mm 0 3325m 2°C 2_10 0cm 35% 10mph 15mph 1019mB
Afternoon 1.29688mm 0.3125 3290m 7°C 7_10 0cm 94% 10mph 16mph 1007mB
Morning 1.30729mm 3.6875 2305m 1°C 1_5 0cm 98% 5mph 7mph 1010mB
Afternoon 1.06771mm 0.0625 1799m 2°C 2_8 9cm 100% 8mph 12mph 1017mB
Morning 0.151042mm 0 1459m -3°C -3_7 1cm 98% 7mph 11mph 1022mB
Afternoon 0.0364583mm 0 1066m -1°C -1_3 0cm 69% 3mph 5mph 1026mB
Morning 0mm 0 791m -7°C -7_3 0cm 28% 3mph 4mph 1029mB
Afternoon 0mm 0 1338m 3°C 3_3 0cm 8% 3mph 3mph 1026mB
Morning 0mm 0 1413m -4°C -4_4 0cm 26% 4mph 5mph 1024mB
Afternoon 0mm 0 2447m 6°C 6_5 0cm 26% 5mph 6mph 1019mB
Morning 0mm 0 2239m -1°C -1_5 0cm 5% 5mph 6mph 1018mB

16 day outlook at a glance

Forecast issued: 21/10/2018 02:18:36

Chat

Your comments and questions. In a resort? Let us know what it's like!


Characters left 250

For terms and conditions see Readers Comments on the Cookie and privacy policy page.